TimeEDT,TemperatureF,Dew PointF,Humidity,Sea Level PressureIn,VisibilityMPH,Wind Direction,Wind SpeedMPH,Gust SpeedMPH,PrecipitationIn,Events,Conditions,WindDirDegrees,DateUTC
12:53 AM,55.0,50.0,83,30.07,10.0,Calm,Calm,-,N/A,,Clear,0,2013-08-06 04:53:00
1:53 AM,55.0,50.0,83,30.07,10.0,Calm,Calm,-,N/A,,Clear,0,2013-08-06 05:53:00
2:53 AM,55.0,51.1,86,30.07,10.0,Calm,Calm,-,N/A,,Clear,0,2013-08-06 06:53:00
3:53 AM,53.1,50.0,89,30.08,10.0,Calm,Calm,-,N/A,,Clear,0,2013-08-06 07:53:00
4:53 AM,52.0,48.9,89,30.08,10.0,Calm,Calm,-,N/A,,Clear,0,2013-08-06 08:53:00
5:53 AM,52.0,48.9,89,30.09,10.0,Calm,Calm,-,N/A,,Clear,0,2013-08-06 09:53:00
6:53 AM,55.9,53.1,90,30.11,10.0,Calm,Calm,-,N/A,,Clear,0,2013-08-06 10:53:00
7:53 AM,71.1,63.0,75,30.11,10.0,Calm,Calm,-,N/A,,Clear,0,2013-08-06 11:53:00
8:53 AM,73.0,62.1,68,30.12,10.0,SE,4.6,-,N/A,,Scattered Clouds,130,2013-08-06 12:53:00
9:53 AM,73.9,61.0,64,30.12,10.0,ESE,8.1,-,N/A,,Clear,120,2013-08-06 13:53:00
10:53 AM,73.9,59.0,59,30.13,10.0,ESE,11.5,-,N/A,,Clear,110,2013-08-06 14:53:00
11:53 AM,75.0,59.0,57,30.14,10.0,SE,11.5,-,N/A,,Clear,140,2013-08-06 15:53:00
12:53 PM,75.0,59.0,57,30.15,10.0,SE,9.2,-,N/A,,Mostly Cloudy,140,2013-08-06 16:53:00
1:53 PM,75.9,61.0,60,30.15,10.0,ESE,10.4,-,N/A,,Clear,120,2013-08-06 17:53:00
2:53 PM,75.9,60.1,58,30.14,10.0,SSE,8.1,18.4,N/A,,Clear,150,2013-08-06 18:53:00
3:53 PM,75.9,60.1,58,30.15,10.0,South,9.2,-,N/A,,Clear,180,2013-08-06 19:53:00
4:53 PM,75.9,55.9,50,30.14,10.0,South,9.2,-,N/A,,Clear,190,2013-08-06 20:53:00
5:53 PM,75.0,55.0,50,30.15,10.0,South,8.1,-,N/A,,Clear,180,2013-08-06 21:53:00
6:53 PM,73.0,54.0,51,30.15,10.0,South,6.9,-,N/A,,Clear,180,2013-08-06 22:53:00
7:53 PM,69.1,55.9,63,30.16,10.0,Calm,Calm,-,N/A,,Clear,0,2013-08-06 23:53:00
8:53 PM,62.1,53.1,72,30.17,10.0,Calm,Calm,-,N/A,,Clear,0,2013-08-07 00:53:00
9:53 PM,57.9,52.0,81,30.16,10.0,Calm,Calm,-,N/A,,Clear,0,2013-08-07 01:53:00
10:53 PM,55.9,51.1,84,30.16,10.0,Calm,Calm,-,N/A,,Clear,0,2013-08-07 02:53:00
11:53 PM,55.0,50.0,83,30.16,10.0,Calm,Calm,-,N/A,,Clear,0,2013-08-07 03:53:00